CUTE-1 (CO-55) 1 27844U 03031E 26061.96016478 .00000415 00000+0 19885-3 0 9991 2 27844 98.6778 71.8426 0010458 130.0831 230.1266 14.24259384176550 CUBESAT XI-IV (CO-57) 1 27848U 03031J 26061.96597561 .00000349 00000+0 17234-3 0 9994 2 27848 98.6808 71.6462 0010091 146.6500 213.5316 14.23555571176260 CUBESAT XI-V 1 28895U 05043F 26061.85173583 .00002468 00000+0 39841-3 0 9996 2 28895 98.2814 215.3472 0014356 178.8167 181.3076 14.72281718 86109 CUTE-1.7+APD II (CO-65) 1 32785U 08021C 26062.14583151 .00008575 00000+0 55688-3 0 9999 2 32785 97.8194 41.5004 0010305 38.7963 321.4002 15.08255715969201 CANX-2 1 32790U 08021H 26061.92437846 .00006050 00000+0 43349-3 0 9996 2 32790 97.8552 39.7625 0012259 50.8222 309.4090 15.04706593968827 SEEDS II (CO-66) 1 32791U 08021J 26061.91817894 .00024160 00000+0 86611-3 0 9992 2 32791 97.7504 55.0685 0002722 18.9486 341.1853 15.28722011971038 SWISSCUBE 1 35932U 09051B 26062.18210353 .00001468 00000+0 30096-3 0 9995 2 35932 98.4106 328.2095 0006633 172.0833 188.0473 14.62237116873667 BEESAT-1 1 35933U 09051C 26061.72684062 .00001272 00000+0 26627-3 0 9995 2 35933 98.4036 327.6002 0004824 184.8887 175.2267 14.61513291873637 ITUPSAT1 1 35935U 09051E 26062.17322241 .00001119 00000+0 24205-3 0 9995 2 35935 98.4124 327.3548 0006838 199.3753 160.7188 14.60250598873266 TISAT 1 1 36799U 10035E 26061.81287160 .00025810 00000+0 96804-3 0 9996 2 36799 98.0646 359.3470 0000179 143.8613 216.2636 15.27224236851445 AEROCUBE 4.5A 1 38767U 12048K 26062.12630078 .00098054 00000+0 11183-2 0 9990 2 38767 64.6376 42.8859 0041867 214.2741 145.5701 15.60602915355964 STRAND-1 1 39090U 13009E 26062.08921195 .00000441 00000+0 16299-3 0 9993 2 39090 98.3881 244.9451 0008639 181.0314 179.0856 14.37087667681823 BRITE-AUSTRIA 1 39091U 13009F 26062.05707686 .00000281 00000+0 11028-3 0 9995 2 39091 98.3949 244.1306 0009968 190.8644 169.2329 14.36491289681813 NEE-01 PEGASO 1 39151U 13018B 26061.93140828 .00005045 00000+0 48994-3 0 9992 2 39151 98.1033 202.7192 0013546 150.3280 209.8710 14.93025625694841 POPACS 2 1 39269U 13055E 26061.98472707 .00028067 00000+0 49174-3 0 9992 2 39269 80.9892 265.4682 0431962 174.2499 186.3923 14.87389598647406 POPACS 3 1 39270U 13055F 26061.24760007 .00018351 00000+0 44171-3 0 9993 2 39270 81.0063 344.9571 0561688 35.2955 328.4100 14.53690183623006 ZACUBE-1 (TSHEPISOSAT) 1 39417U 13066B 26061.86043747 .00006102 00000+0 48380-3 0 9998 2 39417 97.8182 23.6506 0041554 243.0931 116.6044 15.00236927664782 WNISAT-1 1 39423U 13066H 26061.97328759 .00002033 00000+0 37877-3 0 9994 2 39423 97.7030 218.7725 0163122 206.0644 153.2278 14.57840285651259 TRITON-1 1 39427U 13066M 26062.18578189 .00003917 00000+0 47688-3 0 9999 2 39427 97.8306 334.4254 0089668 219.0804 140.3910 14.81154932658393 GOMX-1 1 39430U 13066Q 26062.15002721 .00001868 00000+0 28681-3 0 9999 2 39430 97.6572 269.2627 0130631 58.3274 303.0595 14.69065861654347 CUBEBUG-2 (LO-74) 1 39440U 13066AA 26061.86115484 .00007706 00000+0 72433-3 0 9999 2 39440 97.8806 10.5236 0059454 21.5397 338.8304 14.92848010661123 NEE-02 KRYSAOR 1 39441U 13066AB 26061.77975622 .00004041 00000+0 44844-3 0 9992 2 39441 97.8811 1.8428 0068260 59.2659 301.5256 14.86105057660391 FUNCUBE-1 (AO-73) 1 39444U 13066AE 26062.13757133 .00010295 00000+0 66728-3 0 9994 2 39444 97.8166 31.5650 0036601 201.9593 158.0068 15.07754747663671 UWE-3 1 39446U 13066AG 26061.84106501 .00006370 00000+0 55859-3 0 9992 2 39446 97.8591 17.3470 0048825 316.1252 43.6095 14.96081924661673 BRITE-CA1 (TORONTO) 1 40020U 14033L 26061.90146809 .00001524 00000+0 23749-3 0 9998 2 40020 97.9556 192.9101 0077689 256.9523 102.3004 14.72438680626570 DUCHIFAT-1 1 40021U 14033M 26062.11216218 .00060633 00000+0 11193-2 0 9990 2 40021 98.0644 107.7691 0006720 103.1192 257.0807 15.48874704639255 NANOSATC-BR1 1 40024U 14033Q 26062.04099784 .00019981 00000+0 73735-3 0 9993 2 40024 98.0840 85.2524 0003913 166.1172 194.0174 15.27812035637755 QB50P1 1 40025U 14033R 26061.97947682 .00011071 00000+0 57391-3 0 9996 2 40025 98.0997 65.8094 0007614 219.7870 140.2804 15.16340222636920 QB50P2 1 40032U 14033Y 26062.18464698 .00011208 00000+0 62896-3 0 9997 2 40032 98.0718 52.6122 0007803 162.6279 197.5219 15.13514939636621 PERSEUS-M2 1 40037U 14033AD 26062.13529368 .00003838 00000+0 35510-3 0 9996 2 40037 97.9855 10.6180 0010365 295.9133 64.1018 14.95121076634933 PERSEUS-M1 1 40039U 14033AF 26061.78123926 .00003474 00000+0 32126-3 0 9994 2 40039 97.9548 4.2636 0010070 294.5474 65.4696 14.95207636634736 POLYITAN-1 1 40042U 14033AJ 26062.00070681 .00024160 00000+0 85298-3 0 9996 2 40042 98.1046 78.4877 0008787 146.9517 213.2272 15.29195498637349 TIGRISAT 1 40043U 14033AK 26061.64832918 .00003135 00000+0 36831-3 0 9993 2 40043 97.7655 214.2268 0050753 65.0259 295.6215 14.84681965629812 AEROCUBE 6A 1 40045U 14033AM 26061.97832583 .00007500 00000+0 65098-3 0 9996 2 40045 97.7108 230.2132 0039414 12.1397 348.0765 14.96723750630729 AEROCUBE 6B 1 40046U 14033AN 26062.01449149 .00008972 00000+0 75135-3 0 9992 2 40046 97.7105 229.8286 0037726 5.0402 355.1193 14.98106817630852 CANX-4 1 40055U 14034C 26062.15765331 .00001353 00000+0 18175-3 0 9999 2 40055 98.3288 293.4943 0012802 357.7943 2.3209 14.81040878628833 CANX-5 1 40056U 14034D 26062.15729993 .00001352 00000+0 18149-3 0 9994 2 40056 98.3291 293.5312 0012795 358.0287 2.0872 14.81057536619646 UKUBE-1 1 40074U 14037F 26062.19679825 .00012698 00000+0 75114-3 0 9999 2 40074 98.4218 54.4986 0002605 119.1945 240.9543 15.11612544632534 BRITE-PL2 (HEWELIUSZ) 1 40119U 14049B 26061.84231936 .00003093 00000+0 29400-3 0 9996 2 40119 97.8979 173.1336 0015452 102.4479 257.8470 14.94135381625560 AEROCUBE 5C 1 40965U 15058B 26061.93674957 .00004984 00000+0 44372-3 0 9995 2 40965 64.7659 232.9662 0131109 105.1816 256.3839 14.90781267349816 AEROCUBE 7 1 40966U 15058C 26061.82662411 .00006735 00000+0 54682-3 0 9997 2 40966 64.7616 217.7319 0121121 104.3736 257.0859 14.94798472350053 FOX-1A (AO-85) 1 40967U 15058D 26061.88201976 .00004626 00000+0 42033-3 0 9993 2 40967 64.7735 249.1775 0129257 98.6614 262.9166 14.90282691 97724 SINOD-D 1 1 40968U 15058E 26061.95045060 .00006567 00000+0 53572-3 0 9998 2 40968 64.7739 231.3692 0117601 95.9887 265.4643 14.94952940100775 SNAP-3 ALICE 1 40970U 15058G 26061.51104154 .00062737 00000+0 13910-2 0 9995 2 40970 64.7561 107.5162 0037484 72.1229 288.3990 15.42623390100344 LMRST-SAT 1 40971U 15058H 26061.87788666 .00004728 00000+0 43118-3 0 9991 2 40971 64.7743 245.3312 0131398 100.6138 260.9804 14.89915268 97714 SNAP-3 EDDIE 1 40972U 15058J 26062.16027011 .00062818 00000+0 13405-2 0 9994 2 40972 64.7482 96.7608 0038781 76.3496 284.1956 15.43696867102578 PROPCUBE 3 1 40973U 15058K 26061.83496300 .00006101 00000+0 51162-3 0 9995 2 40973 64.7675 224.6184 0123995 102.4301 259.0721 14.93437636 98916 BISONSAT 1 40974U 15058L 26061.62168048 .00014146 00000+0 73496-3 0 9990 2 40974 64.7610 157.5219 0079559 94.1495 266.8726 15.13574185 99473 SNAP-3 JIMI 1 40975U 15058M 26061.70282442 .00008999 00000+0 63499-3 0 9996 2 40975 64.7656 196.3627 0105970 99.4923 261.8190 15.01002788 98234 PROPCUBE 1 (FLORA) 1 40976U 15058N 26062.00455689 .00004086 00000+0 38899-3 0 9995 2 40976 64.7731 264.1661 0130521 102.8280 258.7451 14.88571797100454 SINOD-D 3 1 40977U 15058P 26061.84671982 .00006200 00000+0 53041-3 0 9999 2 40977 64.7709 247.6667 0118968 100.9576 260.4948 14.93113287 98875 HORYU-4 1 41340U 16012D 26062.20558706 .00088491 00000+0 98069-3 0 9995 2 41340 30.9912 113.3204 0001972 80.6893 279.3983 15.61570838554093 RAVAN 1 41849U 16067B 26062.17028311 .00042041 00000+0 87407-3 0 9994 2 41849 98.0061 300.2138 0006930 26.9455 333.2151 15.45511771511279 CELTEE 1 1 41850U 16067C 26061.56582436 .00007540 00000+0 36940-3 0 9992 2 41850 98.0827 280.8515 0000538 127.4358 232.6924 15.18474650509697 OPTICUBE 04 1 41851U 16067D 26062.14494646 .00002895 00000+0 18634-3 0 9991 2 41851 98.0810 268.8504 0017014 114.3900 245.9105 15.09138115509173 AEROCUBE 8D 1 41852U 16067E 26062.15696579 .00010468 00000+0 45182-3 0 9995 2 41852 98.0841 284.2902 0004384 128.2686 231.8943 15.22725239509924 AEROCUBE 8C 1 41853U 16067F 26062.13260310 .00010327 00000+0 44277-3 0 9992 2 41853 98.0707 281.6322 0006681 71.4783 288.7177 15.22947507509915 CORVUS BC2 1 42846U 17042X 26062.01478954 .00005617 00000+0 39350-3 0 9993 2 42846 97.3920 227.6145 0014245 114.4445 245.8270 15.05524638471089 CORVUS BC1 1 42847U 17042Y 26062.02226640 .00004251 00000+0 29722-3 0 9993 2 42847 97.3952 228.3628 0013307 92.3709 267.9043 15.05742733471119 MAKERSAT 0 1 43016U 17073D 26061.88983352 .00027189 00000+0 82958-3 0 9994 2 43016 97.4799 303.8469 0116311 290.2931 68.5838 15.27407451450219 SIRION PATHFINDER-2 1 43759U 18099B 26062.10628416 .00006223 00000+0 35155-3 0 9993 2 43759 97.4403 113.6880 0007616 313.6879 46.3721 15.13439131396575 CORVUS BC4 1 43767U 18099K 26062.10561255 .00005415 00000+0 32294-3 0 9992 2 43767 97.4221 108.1812 0008737 19.2666 340.8893 15.11527775396374 SPACEBEE-7 1 43816U 18099BL 26061.75586284 .01193306 78424-3 19892-2 0 9991 2 43816 97.4408 148.0919 0007821 270.3555 89.6828 16.03076494398105 M2 PATHFINDER 1 45727U 20037E 26062.09335528 .00003103 00000+0 22816-3 0 9996 2 45727 97.8145 252.1438 0012363 146.9001 213.3001 15.04121673309543 NETSAT-4 1 46504U 20068U 26061.96413472 .00022756 00000+0 57063-3 0 9991 2 46504 97.8634 61.9631 0005618 5.0284 355.1016 15.40038733299402 NETSAT-3 1 46505U 20068V 26061.94870741 .00022607 00000+0 59236-3 0 9995 2 46505 97.8669 60.3161 0006140 21.2867 338.8631 15.38690706299323 NETSAT-1 1 46506U 20068W 26061.95704766 .00017623 00000+0 57636-3 0 9994 2 46506 97.8736 55.8310 0006763 38.8799 321.2927 15.31759112299024 NETSAT-2 1 46507U 20068X 26062.05242938 .00027020 00000+0 65200-3 0 9993 2 46507 97.8647 61.6484 0005536 39.6354 320.5295 15.41171786299369 WILDTRACKCUBE-SIMBA 1 47941U 21022K 26061.77831130 .01594751 20789-2 13686-2 0 9993 2 47941 97.3814 343.4750 0007101 121.4058 238.7923 16.13912444274737 GREENCUBE (IO-117) 1 53109U 22080E 26061.72898270 -.00000003 00000+0 00000+0 0 9990 2 53109 70.1617 335.2737 0009043 313.3588 46.6318 6.42583122 85227 SITRO-AIS 5 (KATYS) 1 57176U 23091L 26062.19244433 .00015808 00000+0 59996-3 0 9999 2 57176 97.5196 125.2184 0013390 115.6700 244.5923 15.26847395148152 SITRO-AIS 6 (CHIRKIN) 1 57192U 23091AC 26062.21519836 .00008854 00000+0 36435-3 0 9998 2 57192 97.5199 124.8625 0014200 115.7371 244.5334 15.24285192148137 SITRO-AIS 8 (ANOKHIN) 1 57193U 23091AD 26062.18415303 .00017440 00000+0 61806-3 0 9990 2 57193 97.5189 126.4045 0012601 113.3507 246.9060 15.29091615148232 SITRO-AIS 7 (FARTUSHNIY) 1 57194U 23091AE 26062.19869031 .00007678 00000+0 31867-3 0 9999 2 57194 97.5200 124.7196 0013950 116.5267 243.7402 15.24044437148129 SITRO-AIS 10 (BURDAEV) 1 57199U 23091AK 26062.16682291 .00023525 00000+0 70636-3 0 9998 2 57199 97.5202 130.4492 0008497 94.9619 265.2594 15.34406101148480 SITRO-AIS 9 (SHCHUKIN) 1 57201U 23091AM 26062.16347338 .00022945 00000+0 69700-3 0 9997 2 57201 97.5201 130.2492 0008671 94.7537 265.4695 15.34040763148473 SITRO-AIS 12 (SMIRENNIY) 1 57204U 23091AQ 26062.17281993 .00023481 00000+0 70767-3 0 9996 2 57204 97.5212 130.6641 0008375 90.2388 269.9814 15.34289679148499 SITRO-AIS 11 (SHEFFER) 1 57208U 23091AU 26062.21264822 .00024468 00000+0 72952-3 0 9991 2 57208 97.5210 130.8915 0008196 89.8387 270.3795 15.34622790148513 SITRO-AIS 25 1 59066U 24039R 26062.21711228 .00004881 00000+0 38830-3 0 9999 2 59066 95.3945 162.3049 0146136 339.1324 20.3973 14.92562742108919 SITRO-AIS 26 1 59067U 24039S 26062.20469856 .00004537 00000+0 36271-3 0 9991 2 59067 95.3945 162.2149 0146457 339.6155 19.9260 14.92375149108908 SITRO-AIS 27 1 59068U 24039T 26062.20375899 .00004649 00000+0 36855-3 0 9997 2 59068 95.3945 162.4385 0145554 338.4490 21.0646 14.92769739108925 SITRO-AIS 28 1 59071U 24039U 26062.25067613 .00003951 00000+0 31342-3 0 9999 2 59071 95.3947 162.5124 0145478 338.1664 21.3400 14.92804321108937 GRBBETA 1 60237U 24128C 26061.93357576 .00007151 00000+0 49181-3 0 9994 2 60237 61.9887 228.8093 0052095 112.8861 247.7743 15.05686920 90262 OOV-CUBE (TUBSAT-30) 1 60240U 24128F 26061.97319205 .00004186 00000+0 32189-3 0 9994 2 60240 61.9933 235.7860 0055096 111.0571 249.6424 15.02185990 90153 ROBUSTA-3A (MEDITERRAN*) 1 60243U 24128J 26061.90999641 .00011245 00000+0 68092-3 0 9994 2 60243 61.9851 223.5980 0052439 107.1628 253.5217 15.09890417 90361 LASARSAT 1 62391U 24247Q 26062.19837824 .00033989 00000+0 84764-3 0 9991 2 62391 44.9762 134.8764 0002946 344.9527 15.1273 15.39670734 66942 CROCUBE 1 62394U 24247T 26061.26034033 .00038674 00000+0 93070-3 0 9998 2 62394 44.9736 138.7841 0003212 324.6496 35.4178 15.40697026 66812